This demonstration page uses our WeatherBlox Daily Observations layout. Learn more.

Left ArrowRight Arrow

39.51506, -84.39828

Hourly Observations for March 8, 2016

Temp ( °F °C ) Dew Point ( °F °C ) Humidity (%) Winds ( mph kmh ) Pressure ( in mb ) Visibility ( mi km ) Precip ( " mm )
12:15 am 00:15 Clear 49 9.6 38 3.6 66 66 Calm 30.06 1018 10 16 0.00 0.00
12:35 am 00:35 Clear 49 9.6 39 4 68 68 Calm 30.06 1018 10 16 0.00 0.00
12:55 am 00:55 Clear 47 8.2 39 3.8 74 74 Calm 30.06 1018 10 16 0.00 0.00
1:15 am 01:15 Clear 47 8.2 39 4 75 75 Calm 30.09 1019 10 16 0.00 0.00
1:35 am 01:35 Clear 47 8.2 39 4 75 75 Calm 30.09 1019 10 16 0.00 0.00
1:55 am 01:55 Clear 47 8.2 39 4 75 75 Calm 30.09 1019 10 16 0.00 0.00
2:15 am 02:15 Clear 43 6.2 37 2.9 80 80 Calm 30.09 1019 10 16 0.00 0.00
2:35 am 02:35 Clear 42 5.8 38 3.2 84 84 Calm 30.09 1019 10 16 0.00 0.00
2:55 am 02:55 Clear 43 6.3 36 2.4 76 76 Calm 30.09 1019 10 16 0.00 0.00
3:15 am 03:15 Partly Cloudy 42 5.5 37 2.7 82 82 Calm 30.09 1019 10 16 0.00 0.00
3:35 am 03:35 Mostly Cloudy 43 5.9 37 2.8 81 81 Calm 30.09 1019 10 16 0.00 0.00
3:55 am 03:55 Cloudy 43 6.1 37 2.8 80 80 Calm 30.09 1019 10 16 0.00 0.00
4:15 am 04:15 Cloudy 44 6.6 39 3.8 83 83 Calm 30.09 1019 10 16 0.00 0.00
4:35 am 04:35 Cloudy 47 8.1 42 5.4 83 83 Calm 30.09 1019 10 16 0.00 0.00
4:55 am 04:55 Cloudy 49 9.5 44 6.4 81 81 Calm 30.09 1019 10 16 0.00 0.00
5:15 am 05:15 Cloudy 49 9.6 44 6.5 81 81 Calm 30.09 1019 10 16 0.00 0.00
5:35 am 05:35 Cloudy 49 9.6 43 6.1 79 79 Calm 30.09 1019 10 16 0.00 0.00
5:55 am 05:55 Cloudy 49 9.6 41 5.2 74 74 Calm 30.12 1020 10 16 0.00 0.00
6:15 am 06:15 Cloudy 52 10.9 41 5.2 68 68 SSW 6 9 30.12 1020 10 16 0.00 0.00
6:35 am 06:35 Cloudy 56 13.1 39 3.8 54 54 SSW 6 9 30.12 1020 10 16 0.00 0.00
6:55 am 06:55 Cloudy 57 13.8 38 3.5 50 50 SSW 7 11 30.15 1021 10 16 0.00 0.00
7:15 am 07:15 Cloudy 57 13.8 38 3.3 49 49 SSW 5 7 30.15 1021 10 16 0.00 0.00
7:35 am 07:35 Mostly Cloudy 57 13.8 38 3.1 49 49 SSW 9 15 30.15 1021 10 16 0.00 0.00
7:55 am 07:55 Partly Cloudy 57 13.8 37 3 48 48 SSW 8 13 30.15 1021 10 16 0.00 0.00
8:15 am 08:15 Sunny 57 14 38 3.1 48 48 SSW 8 13 30.15 1021 10 16 0.00 0.00
8:35 am 08:35 Sunny 60 15.3 39 3.8 46 46 SSW 8 13 30.18 1022 10 16 0.00 0.00
8:55 am 08:55 Sunny 60 15.8 38 3.6 44 44 SSW 8 13 30.18 1022 10 16 0.00 0.00
9:15 am 09:15 Mostly Cloudy 62 16.5 40 4.4 45 45 SSW 9 15 30.18 1022 10 16 0.00 0.00
9:35 am 09:35 Partly Cloudy 64 18 41 5.2 43 43 SSW 14 22 30.15 1021 10 16 0.00 0.00
9:55 am 09:55 Sunny 67 19.5 43 6.3 42 42 SSW 15 24 30.12 1020 10 16 0.00 0.00
10:15 am 10:15 Sunny 69 20.8 45 7.1 41 41 SW 17 28 30.12 1020 10 16 0.00 0.00
10:35 am 10:35 Sunny 69 20.8 45 7.1 41 41 WSW 18 30 30.12 1020 10 16 0.00 0.00
10:55 am 10:55 Sunny 69 20.8 45 7 41 41 SSW 18 30 30.12 1020 10 16 0.00 0.00
11:15 am 11:15 Sunny 69 20.8 44 6.6 40 40 SW 16 26 30.12 1020 10 16 0.00 0.00
11:35 am 11:35 Sunny 69 20.8 44 6.4 39 39 SSW 16 26 30.12 1020 10 16 0.00 0.00
11:55 am 11:55 Sunny 71 21.6 45 7.1 39 39 SW 14 22 30.12 1020 10 16 0.00 0.00
12:15 pm 12:15 Sunny 72 22.2 46 7.6 39 39 SW 15 24 30.12 1020 10 16 0.00 0.00
12:35 pm 12:35 Sunny 74 23.6 47 8.2 37 37 SSW 16 26 30.09 1019 10 16 0.00 0.00
12:55 pm 12:55 Sunny 74 23.6 46 7.6 36 36 SSW 18 30 30.09 1019 10 16 0.00 0.00
1:15 pm 13:15 Sunny 74 23.4 46 7.7 37 37 SW 14 22 30.06 1018 10 16 0.00 0.00
1:35 pm 13:35 Sunny 74 23.6 44 6.7 34 34 SSW 17 28 30.06 1018 10 16 0.00 0.00
1:55 pm 13:55 Sunny 74 23.6 44 6.5 33 33 SSW 20 31 30.03 1017 10 16 0.00 0.00
2:15 pm 14:15 Sunny 74 23.6 42 5.8 32 32 SSW 17 28 30.03 1017 10 16 0.00 0.00
2:35 pm 14:35 Sunny 74 23.6 42 5.5 31 31 SSW 15 24 30.03 1017 10 16 0.00 0.00
2:55 pm 14:55 Sunny 74 23.6 39 3.9 28 28 S 16 26 30.03 1017 10 16 0.00 0.00
3:15 pm 15:15 Sunny 75 24.1 39 3.8 27 27 SW 15 24 30.03 1017 10 16 0.00 0.00
3:35 pm 15:35 Sunny 76 24.2 38 3.2 26 26 SW 18 30 30.00 1016 10 16 0.00 0.00
3:55 pm 15:55 Sunny 74 23.6 37 2.7 26 26 SSW 13 20 30.00 1016 10 16 0.00 0.00
4:15 pm 16:15 Sunny 74 23.6 38 3.1 26 26 SSW 15 24 30.00 1016 10 16 0.00 0.00
4:35 pm 16:35 Sunny 74 23.6 38 3.6 27 27 SW 17 28 30.00 1016 10 16 0.00 0.00
4:55 pm 16:55 Sunny 74 23.6 36 2.2 25 25 SW 15 24 30.00 1016 10 16 0.00 0.00
5:15 pm 17:15 Sunny 74 23.6 35 1.8 24 24 SW 17 28 30.00 1016 10 16 0.00 0.00
5:35 pm 17:35 Sunny 74 23.6 36 2.4 25 25 SW 15 24 30.00 1016 10 16 0.00 0.00
5:55 pm 17:55 Sunny 74 23.6 40 4.4 29 29 SW 12 19 30.00 1016 10 16 0.00 0.00
6:15 pm 18:15 Sunny 73 22.7 38 3.3 28 28 SSW 12 19 30.00 1016 10 16 0.00 0.00
6:35 pm 18:35 Sunny 69 20.8 37 3 31 31 SW 9 15 30.00 1016 10 16 0.00 0.00
6:55 pm 18:55 Clear 69 20.8 39 3.7 33 33 SSW 13 20 30.00 1016 10 16 0.00 0.00
7:15 pm 19:15 Clear 67 19.5 39 4 36 36 SSW 8 13 30.00 1016 10 16 0.00 0.00
7:35 pm 19:35 Clear 64 18 38 3.1 37 37 S 7 11 29.97 1015 10 16 0.00 0.00
7:55 pm 19:55 Clear 62 16.6 38 3.4 42 42 S 6 9 29.97 1015 10 16 0.00 0.00
8:15 pm 20:15 Clear 64 17.5 37 2.9 38 38 S 6 9 30.00 1016 10 16 0.00 0.00
8:35 pm 20:35 Clear 62 16.6 38 3.4 42 42 SSW 5 7 30.00 1016 10 16 0.00 0.00
8:55 pm 20:55 Clear 60 15.8 37 2.7 42 42 SSW 5 7 30.00 1016 10 16 0.00 0.00
9:15 pm 21:15 Clear 60 15.3 36 2.3 42 42 WSW 5 7 30.03 1017 10 16 0.00 0.00
9:35 pm 21:35 Clear 61 16.1 36 2.1 39 39 SW 5 7 30.00 1016 10 16 0.00 0.00
9:55 pm 21:55 Clear 57 13.8 38 3.3 49 49 SW 3 6 30.03 1017 10 16 0.00 0.00
10:15 pm 22:15 Clear 57 13.8 38 3.1 49 49 Calm 30.03 1017 10 16 0.00 0.00
10:35 pm 22:35 Clear 51 10.6 40 4.2 65 65 Calm 30.06 1018 10 16 0.00 0.00
10:55 pm 22:55 Clear 51 10.7 42 5.3 70 70 Calm 30.06 1018 10 16 0.00 0.00
11:15 pm 23:15 Clear 51 10.7 40 4.5 66 66 Calm 30.06 1018 10 16 0.00 0.00
11:35 pm 23:35 Clear 49 9.6 41 5 73 73 Calm 30.06 1018 10 16 0.00 0.00
11:55 pm 23:55 Clear 49 9.6 41 4.9 73 73 Calm 30.06 1018 10 16 0.00 0.00

Powered by AerisWeather